Theta_e
299 299 299 299 299 300 300 300 299 299 300 299 299 299 299 299 299 299 299 300 300 300 300 301 301 301 301 302 301 301 301 301 302 301 300 300 301 301 301 301 301 301 300 300 300 300 300 300 300 300 299 299 299 299 299 299 299 298 298 297 297 297 297 296 296 296 295 295 295
299 299 299 298 298 299 300 300 299 299 299 300 300 300 300 300 299 299 299 300 300 301 301 301 300 300 301 301 302 302 301 301 301 301 300 300 301 301 301 301 301 301 300 300 300 300 300 300 299 299 299 298 298 298 298 298 298 298 297 297 297 297 297 296 296 296 295 295 295
299 300 300 300 300 300 299 299 299 299 299 300 300 300 300 300 299 299 300 300 300 301 301 301 300 300 301 301 301 302 301 301 301 301 301 301 301 301 301 301 300 300 300 300 300 300 300 300 299 298 298 298 298 297 297 298 298 297 297 297 297 296 296 295 295 295 295 295 294
300 300 300 300 300 299 299 299 299 299 299 300 300 300 300 300 299 300 300 300 300 301 301 301 301 301 301 301 301 301 301 300 301 301 301 301 301 301 301 301 300 300 300 300 300 300 300 300 299 299 298 298 297 297 297 297 297 297 296 297 297 296 296 295 295 295 295 294 294
300 300 300 300 300 300 300 299 299 299 299 300 300 300 299 299 299 299 299 299 299 300 301 301 301 301 300 300 301 301 301 301 299 300 301 300 300 300 301 300 300 300 300 300 300 300 300 299 299 298 298 297 297 296 296 297 297 296 296 297 297 296 296 296 295 295 295 295 295
300 300 300 300 300 300 300 299 299 299 300 300 299 299 299 299 299 299 298 299 299 300 301 300 300 300 300 301 301 301 301 301 300 300 300 300 300 300 300 300 300 300 300 299 299 299 299 299 297 297 297 296 296 296 296 297 296 296 296 296 296 296 296 295 295 295 295 295 295
300 300 300 299 300 299 299 299 300 300 300 299 299 299 299 299 299 299 299 299 300 300 300 299 299 299 300 300 300 300 300 300 300 300 300 300 300 300 300 299 299 299 299 299 299 298 298 298 297 296 295 295 295 296 296 296 296 295 295 295 295 295 295 295 295 295 295 295 294
299 299 299 299 299 299 299 300 300 300 300 299 299 299 300 300 299 299 299 299 299 299 299 299 299 300 300 300 300 300 300 300 300 300 300 300 300 299 299 299 299 298 298 298 298 297 297 297 296 295 295 295 295 295 295 296 295 295 294 294 294 294 294 295 295 294 294 294 294
299 299 299 300 300 300 300 300 300 300 300 299 299 300 300 300 300 300 300 300 299 299 299 299 300 300 300 300 300 300 300 300 300 299 299 299 299 299 298 298 298 298 298 298 297 297 297 296 296 295 295 295 294 295 295 295 295 294 294 293 293 293 293 293 293 293 293 292 292
298 299 299 300 300 300 300 300 300 300 300 299 299 300 299 298 299 300 300 300 299 299 299 300 300 300 300 300 300 300 299 299 299 299 299 298 298 298 298 298 297 297 297 297 297 296 296 296 295 295 295 295 295 295 295 295 294 294 293 293 293 293 293 293 292 292 292 291 291
298 299 299 299 300 300 300 300 300 300 299 299 299 299 299 298 299 299 299 299 299 299 299 300 300 300 300 299 299 299 299 299 299 299 298 298 298 297 297 297 297 296 296 296 296 296 296 295 295 295 295 294 294 294 294 294 294 293 293 293 293 292 292 292 291 291 291 291 291
298 299 299 300 300 300 300 300 300 299 299 299 299 299 299 299 299 299 299 299 299 299 299 300 299 299 299 299 299 299 299 299 299 299 298 298 297 297 297 297 296 295 295 295 296 296 295 295 294 294 294 294 294 294 294 294 293 293 292 293 292 292 291 291 291 291 291 291 291
299 299 300 300 300 300 300 300 300 299 299 299 299 299 299 299 299 299 299 299 298 298 299 299 299 299 299 299 299 300 300 299 299 298 298 297 297 297 297 296 296 295 295 295 296 296 295 294 294 293 293 293 293 293 293 293 293 293 292 292 292 291 291 291 291 291 292 291 291
300 300 300 300 300 300 300 300 299 299 299 299 299 299 299 299 299 298 298 298 298 298 298 299 299 299 299 300 300 300 299 299 298 297 297 297 297 296 296 296 296 295 295 296 296 296 295 294 294 293 293 293 293 293 294 294 293 293 292 292 292 292 292 292 292 292 292 292 291
300 300 300 301 300 300 300 300 299 299 299 299 299 299 299 299 298 298 298 299 298 298 299 299 299 299 299 300 300 299 299 298 297 297 297 296 296 296 296 296 296 296 296 296 296 296 295 294 294 293 293 293 293 293 294 294 293 293 293 292 292 292 292 292 292 292 292 292 291
300 300 300 300 300 300 300 299 299 299 299 299 299 299 299 299 299 298 298 298 299 299 299 299 299 300 300 299 299 298 298 298 297 297 296 296 296 296 296 296 296 295 295 295 295 295 295 294 294 294 294 293 293 293 293 294 293 293 293 293 293 292 292 292 292 292 292 292 291
300 300 300 300 300 300 300 300 300 299 299 299 299 299 299 299 299 298 298 298 298 299 299 299 299 299 299 298 298 298 298 297 297 297 296 296 296 296 296 295 295 295 295 294 294 294 294 294 294 295 294 294 294 294 294 294 293 293 293 293 293 293 293 292 292 292 292 292 291
300 300 300 300 300 300 300 300 300 299 299 299 299 299 299 299 299 298 298 298 299 299 299 299 299 299 298 298 298 298 297 297 297 296 296 296 296 296 295 294 295 295 294 294 293 293 293 294 294 294 294 294 294 294 294 294 293 293 293 293 293 293 293 293 292 292 292 291 291
300 300 300 300 300 300 299 299 299 299 299 299 299 299 299 299 299 299 299 299 299 300 299 299 298 298 298 298 298 297 297 297 297 296 296 296 295 295 294 294 294 294 294 293 293 293 294 294 294 294 294 294 294 294 294 293 293 293 292 293 293 293 293 292 292 291 291 291 290
300 300 300 300 300 300 300 299 299 299 299 299 299 299 299 299 299 299 299 299 299 300 299 298 298 298 298 298 297 297 297 297 297 296 296 296 295 295 294 294 294 295 294 294 294 294 294 294 294 294 294 294 293 293 293 293 292 292 292 292 292 292 292 292 292 291 291 290 290
300 300 300 300 300 300 300 300 300 300 300 299 299 299 299 299 299 299 299 299 300 299 299 298 298 297 297 297 297 297 297 297 297 296 296 296 295 295 295 295 295 295 295 295 295 295 294 294 294 294 294 294 293 293 292 292 292 292 292 292 292 292 292 291 291 291 290 290 290
300 300 300 300 300 300 300 300 300 300 300 299 299 299 299 299 299 299 299 299 299 299 298 298 298 297 297 297 297 297 297 296 297 296 296 296 296 296 296 296 296 295 295 295 295 295 295 295 295 295 294 293 292 292 292 291 291 291 291 291 291 291 291 291 291 290 290 290 289
300 300 300 300 300 300 300 300 300 300 300 299 299 299 299 299 299 299 299 299 298 298 298 298 298 298 298 297 297 296 296 296 296 296 296 297 296 296 297 297 296 295 295 295 295 295 295 295 295 294 293 293 292 291 291 291 291 291 291 291 291 291 290 290 290 290 289 289 288
300 301 301 301 300 300 300 300 300 299 299 299 299 299 299 299 299 299 298 298 298 298 298 298 298 298 298 297 297 296 296 296 296 296 296 297 296 296 296 296 296 295 295 295 294 294 294 294 294 293 293 292 291 291 291 291 291 291 291 290 290 290 290 290 289 289 288 288 288
301 301 300 301 300 300 300 300 299 299 299 299 299 299 299 298 298 298 298 297 298 297 297 297 297 298 298 298 297 297 297 297 296 296 296 296 296 296 295 295 295 295 295 294 290 289 289 289 290 291 291 291 291 291 291 291 291 291 290 290 289 289 289 289 289 288 288 287 287
301 301 300 300 300 300 300 300 299 299 299 299 299 298 298 298 297 297 297 297 297 297 297 297 297 297 297 297 297 297 296 296 296 296 296 295 295 295 295 294 295 295 295 292 288 287 287 287 287 288 289 290 290 290 290 290 291 290 290 289 289 289 288 288 288 288 288 287 287
301 300 300 300 300 300 299 299 299 299 299 298 298 298 297 297 297 297 297 296 297 297 297 297 297 296 296 297 296 296 296 296 296 295 295 295 294 294 294 294 294 294 293 288 287 287 287 287 287 287 288 289 289 289 289 289 290 290 289 289 288 288 287 287 287 287 287 287 287
300 300 300 300 299 299 299 299 299 298 298 298 297 297 297 297 297 296 296 296 296 297 297 297 297 297 296 296 296 295 295 295 295 295 294 294 294 293 293 293 293 292 290 286 287 287 287 287 287 287 287 287 289 289 289 289 289 288 288 288 288 287 287 287 287 287 287 287 286
300 300 300 299 299 299 299 299 298 298 298 298 297 297 297 297 297 296 296 296 296 296 296 297 297 296 296 295 295 295 295 295 294 294 294 294 293 293 293 292 292 291 288 286 287 287 287 287 287 287 287 287 288 288 288 288 288 288 287 287 287 286 286 287 287 287 286 286 286
300 300 300 299 299 299 299 298 298 298 298 298 297 297 297 296 296 296 296 296 296 296 296 296 296 296 295 295 295 295 294 294 294 294 293 293 292 292 292 291 292 291 289 286 287 287 287 287 287 287 287 287 287 287 287 287 287 287 287 287 287 287 286 287 286 286 286 286 285
300 300 299 299 299 298 298 298 298 298 298 298 297 297 297 296 296 296 296 296 296 296 296 296 296 295 295 295 294 294 294 293 293 293 293 292 291 291 291 291 292 290 288 286 287 287 287 287 287 287 286 286 286 286 287 287 287 287 287 287 287 287 287 286 286 286 286 285 285
300 300 299 299 298 298 298 298 298 298 298 298 297 297 296 296 296 296 296 296 296 296 296 295 295 294 294 294 294 294 293 293 293 293 292 292 291 291 291 291 291 289 287 287 286 286 286 286 286 286 286 285 285 286 287 287 287 287 287 287 287 287 287 286 286 286 286 285 285
300 299 299 298 298 298 298 298 298 298 298 297 297 296 296 296 296 297 296 296 296 296 296 295 294 294 293 293 293 293 293 293 292 292 291 291 291 291 291 290 291 288 286 286 286 286 285 285 285 285 285 285 285 286 286 287 287 287 287 287 287 287 287 287 286 286 286 285 285
300 299 299 298 298 298 298 297 297 297 297 297 297 297 297 296 296 296 296 296 296 296 295 294 294 294 293 293 293 293 292 292 292 292 292 291 291 290 290 290 290 288 285 286 285 285 285 284 284 284 284 284 285 285 286 286 286 286 286 286 286 286 287 287 286 286 286 285 285
300 299 299 299 298 298 297 297 296 296 297 297 297 297 297 296 296 296 296 295 295 295 295 294 294 294 294 293 293 293 292 292 292 292 292 291 291 290 290 290 290 287 285 285 285 284 284 284 283 283 283 283 284 285 286 285 285 285 285 286 286 286 286 287 286 286 286 285 284
299 299 299 299 298 297 297 296 296 296 296 296 296 297 296 296 296 296 295 294 294 294 294 294 293 293 293 293 293 292 292 292 292 292 291 291 290 290 289 289 289 287 285 285 284 284 283 283 283 283 283 283 284 285 285 285 285 285 285 285 285 286 286 286 286 285 285 284 284
299 299 299 299 298 297 296 296 296 296 296 296 296 296 296 296 296 295 295 294 294 294 293 293 293 293 292 292 292 292 292 291 291 291 291 290 290 289 289 288 289 287 284 284 283 283 283 283 282 282 283 283 284 284 284 284 284 284 285 285 285 285 285 285 285 285 284 284 283
299 299 299 298 297 296 296 296 297 296 296 296 296 296 296 295 295 295 294 293 293 293 292 292 292 292 292 292 292 292 291 291 291 291 291 290 290 289 288 288 288 287 285 283 283 282 282 282 282 282 282 283 283 283 283 283 284 284 284 284 285 285 284 284 284 284 283 283 282
299 298 298 297 296 296 296 296 296 296 296 296 296 295 295 295 295 294 294 293 293 292 292 292 292 292 292 292 292 291 291 291 291 291 290 290 290 289 288 287 288 288 286 283 282 282 282 282 282 282 282 282 283 283 283 283 283 284 284 284 284 284 284 284 283 283 283 283 282
298 298 297 296 296 296 295 295 295 296 296 296 295 295 295 294 294 294 293 293 293 293 292 292 292 292 292 291 291 291 291 290 291 291 290 290 290 288 287 288 288 288 287 283 282 282 282 281 281 281 282 282 282 283 283 283 283 283 283 283 283 283 283 283 283 283 282 282 282
297 297 296 296 296 296 295 295 295 295 296 296 295 294 294 294 293 293 293 293 293 293 292 292 292 292 292 291 291 291 290 290 290 290 290 289 289 289 288 288 288 288 287 285 282 281 281 281 281 281 281 282 282 283 283 283 283 282 282 282 282 282 281 282 282 282 282 282 282
Wind_Speed
4 3 2 1 1 1 1 2 1 1 1 2 2 2 2 2 2 2 2 2 2 2 3 3 3 3 4 4 4 5 5 6 5 5 5 6 6 6 6 6 6 7 7 7 7 7 7 8 7 6 5 5 6 7 7 6 7 8 8 7 7 7 8 8 8 8 9 8 7
3 3 3 2 2 1 1 1 1 1 1 1 1 2 2 2 2 2 3 3 3 3 3 3 3 4 5 5 4 5 5 6 6 6 6 7 7 7 6 6 6 7 7 7 7 7 7 8 7 7 6 6 7 7 7 7 7 8 8 9 7 7 7 7 8 8 8 8 7
3 2 2 2 1 1 1 1 1 2 2 1 1 1 1 2 2 2 3 3 3 3 3 3 4 4 5 5 5 5 5 6 6 6 6 7 7 7 7 7 7 7 7 7 7 7 7 8 7 6 6 6 7 7 7 7 7 7 8 8 7 6 6 6 7 8 7 7 8
3 2 2 3 3 2 2 2 2 2 2 2 1 1 1 2 2 2 3 4 4 4 3 3 4 4 5 5 5 5 5 6 6 6 7 7 8 8 8 8 8 8 8 7 8 8 8 8 7 6 6 8 8 8 7 7 7 7 6 6 6 6 6 6 7 7 7 7 8
3 3 3 2 2 2 2 2 2 2 2 1 1 1 2 2 2 3 3 4 4 4 4 4 4 4 5 6 6 6 6 6 6 6 7 7 8 8 8 8 8 8 8 8 9 9 9 9 7 6 6 7 7 7 7 8 8 7 5 4 4 5 6 7 7 7 7 7 7
4 4 3 2 2 1 1 1 1 1 1 2 2 2 2 2 3 3 4 4 5 5 5 5 5 5 5 6 6 6 7 7 7 7 7 8 8 8 9 9 9 9 8 9 9 9 9 8 6 6 6 6 6 7 7 8 7 7 6 5 5 5 6 7 7 7 7 8 9
4 3 3 2 1 0 1 1 1 1 2 2 2 3 3 3 4 5 5 5 5 5 5 5 5 5 6 6 6 6 6 7 7 8 8 8 8 9 9 9 9 10 9 9 9 9 8 8 6 5 5 5 5 6 7 7 7 7 7 7 6 6 7 8 7 7 8 10 11
3 3 2 2 1 0 1 1 2 2 2 2 3 3 4 4 5 5 6 6 5 5 5 5 6 6 6 6 6 6 7 7 8 8 8 8 9 9 9 9 10 10 10 9 9 9 8 7 6 5 5 5 5 5 7 8 8 8 9 9 8 8 7 7 7 8 9 11 12
3 3 2 2 1 1 1 2 2 2 3 3 3 4 4 4 5 5 6 5 5 5 6 6 7 7 7 7 7 7 7 7 7 8 8 8 8 9 9 9 9 9 9 8 8 9 8 7 6 6 5 5 5 6 7 8 9 9 9 9 9 9 9 8 9 10 11 11 12
3 3 3 2 1 1 2 3 2 3 3 3 4 4 4 4 5 5 5 5 5 6 6 6 7 7 7 7 7 7 7 7 7 7 8 8 9 9 9 8 9 9 8 8 7 7 7 6 6 6 7 7 7 8 8 9 9 10 9 8 9 10 11 11 11 11 11 11 12
3 3 2 2 1 2 2 3 3 3 3 4 4 5 5 5 5 5 5 5 5 6 7 7 7 7 7 7 7 6 6 6 7 7 8 9 9 9 9 9 9 9 8 7 7 6 6 6 7 7 8 8 8 8 8 9 9 10 10 9 10 11 12 12 12 11 11 11 12
3 3 3 2 1 2 3 4 4 4 4 4 5 5 5 6 6 6 6 6 6 7 7 8 8 8 7 6 6 6 6 6 7 8 9 9 10 10 10 9 9 8 8 8 7 6 6 6 7 8 9 9 7 7 8 9 10 11 11 11 12 12 12 13 12 11 11 11 12
4 3 3 2 2 3 3 4 4 4 4 5 5 5 5 6 6 6 6 7 7 7 7 7 7 7 7 6 6 6 6 7 8 8 9 10 10 10 10 9 9 8 8 7 7 6 6 7 8 9 10 9 8 7 8 10 10 11 11 12 12 12 12 13 13 12 12 12 12
5 4 3 2 2 3 4 4 4 4 4 5 5 5 6 6 6 6 6 6 7 7 7 7 7 6 6 7 6 6 7 8 9 9 10 10 10 10 10 9 9 8 8 7 7 7 8 8 9 9 10 10 9 9 9 10 10 11 11 12 12 13 13 13 13 13 13 13 13
5 4 3 3 3 3 4 4 4 4 5 5 5 6 6 6 6 6 6 6 7 7 7 7 6 6 7 7 7 8 8 9 9 10 10 10 10 10 10 10 10 9 9 8 7 8 8 9 9 9 9 10 10 11 10 10 10 11 11 12 12 13 12 12 13 13 13 13 13
4 4 3 3 4 4 4 4 4 4 5 6 6 6 6 6 5 5 6 6 6 6 6 7 7 7 7 7 8 9 9 9 9 9 10 10 10 10 11 10 10 10 10 9 9 8 8 8 8 9 9 10 11 11 11 11 11 11 12 12 12 12 12 12 12 12 13 13 13
4 4 4 4 5 5 5 5 4 5 5 6 7 7 6 6 5 5 5 6 6 6 7 7 7 7 7 7 8 8 8 8 8 9 9 10 11 11 11 11 11 10 10 10 9 9 8 8 8 8 9 10 10 11 11 12 11 12 12 13 13 12 12 12 12 12 12 12 13
5 5 5 5 5 5 5 5 5 6 6 7 7 7 6 6 6 6 6 6 6 7 7 8 8 8 8 8 7 7 7 7 8 9 9 10 11 11 11 11 11 11 10 10 9 9 9 9 9 9 9 10 10 10 11 12 12 12 13 13 13 13 12 12 12 12 12 12 13
5 5 5 5 6 6 6 6 6 6 7 7 7 7 7 7 7 6 6 6 6 7 8 8 8 8 8 8 8 7 7 7 8 9 9 10 11 11 10 10 11 11 10 10 10 10 10 10 10 10 10 10 10 11 11 12 12 13 13 13 13 13 13 13 13 13 13 13 13
5 5 5 5 6 6 6 6 6 7 7 7 7 8 7 7 7 7 7 7 7 7 8 8 8 8 8 8 8 8 7 6 7 8 9 10 10 10 10 10 11 11 11 11 11 11 11 11 11 10 10 10 10 11 12 13 13 13 13 13 13 13 13 13 13 14 14 14 14
5 5 5 5 6 6 6 6 6 7 7 8 8 8 8 7 7 7 7 7 7 7 8 8 8 8 8 8 8 8 7 6 7 8 9 10 10 10 10 10 11 11 11 11 11 11 11 11 11 10 10 10 10 11 12 12 13 13 13 12 13 14 14 14 14 14 15 15 15
5 5 5 6 6 6 6 6 6 7 8 8 8 8 8 7 7 7 7 7 7 7 8 8 8 8 8 8 8 8 8 7 7 8 9 10 10 10 10 10 10 11 11 12 12 11 11 11 10 10 9 9 10 11 12 12 13 13 14 14 15 15 15 15 15 15 15 15 15
6 6 5 6 6 6 6 6 7 7 8 8 8 8 8 7 7 8 8 7 7 7 7 7 7 7 8 8 8 8 8 8 9 9 10 10 10 10 10 10 11 11 11 11 11 11 10 9 9 9 9 9 11 12 12 13 13 13 14 15 15 16 16 15 15 15 15 14 14
6 6 5 5 6 6 6 7 7 8 8 8 8 8 8 8 8 8 8 7 7 7 7 7 7 7 7 7 7 8 8 9 10 10 11 10 10 10 10 10 10 10 10 9 7 7 6 6 7 7 8 9 10 11 11 12 12 13 14 15 15 15 15 15 15 15 14 14 13
6 6 6 6 6 7 7 7 8 8 8 8 8 8 8 8 8 7 7 8 7 7 8 8 7 7 6 6 7 8 9 10 10 11 11 11 10 10 10 9 9 9 8 5 6 7 7 5 5 5 7 8 9 9 10 11 12 13 13 14 15 15 15 15 15 15 14 14 13
6 6 6 6 7 7 7 8 8 8 8 8 8 8 8 8 7 8 8 8 8 8 8 8 7 6 6 6 7 8 8 9 9 10 10 10 11 10 10 8 8 7 4 5 8 9 9 8 6 5 5 7 8 8 9 10 11 12 13 14 14 14 14 14 14 14 14 13 13
7 6 6 7 7 7 8 8 8 8 8 8 8 8 8 8 7 8 8 8 8 8 8 7 6 6 5 6 7 8 8 8 9 9 10 10 10 11 10 9 8 5 4 9 9 9 8 8 6 5 5 6 7 8 9 9 11 12 13 14 14 14 14 14 14 14 13 12 13
6 6 6 7 7 7 8 8 8 8 8 8 8 8 8 8 8 8 8 8 8 8 7 6 6 5 5 5 7 8 8 9 8 8 9 9 10 10 10 10 9 4 8 11 9 8 7 6 5 4 4 5 7 8 9 10 11 12 12 12 12 13 13 13 12 12 12 13 13
7 6 7 7 7 8 8 8 8 8 8 8 8 8 8 8 8 8 8 8 8 8 7 5 5 5 5 6 7 8 8 8 8 8 8 9 10 10 11 11 10 4 10 12 9 8 8 7 6 5 4 5 6 7 8 9 10 11 11 11 11 11 12 12 12 12 12 12 13
6 6 6 7 7 8 8 8 8 8 8 7 7 8 8 8 8 8 8 8 8 8 7 6 6 6 7 7 8 8 8 8 7 8 8 9 10 10 11 11 9 4 10 12 10 9 9 8 6 5 4 5 7 8 9 10 11 11 11 11 11 12 12 12 13 13 13 12 12
6 6 7 7 8 8 8 8 8 7 7 7 7 8 8 8 8 8 8 8 8 7 7 7 7 8 8 8 8 8 8 8 8 8 8 9 10 10 11 12 7 6 11 11 11 10 9 8 6 5 4 5 6 8 9 10 11 11 11 11 12 12 12 12 12 12 13 13 13
7 7 7 7 8 8 8 8 7 7 7 7 8 8 8 8 8 8 8 8 8 8 7 7 7 8 8 8 8 8 8 8 8 8 8 9 9 10 10 12 5 8 11 10 11 10 9 7 6 5 5 5 7 9 11 11 12 11 11 12 13 13 13 11 11 12 13 14 13
7 7 7 8 8 7 7 7 7 7 7 7 8 8 8 8 8 8 8 8 7 7 7 7 7 8 8 8 8 8 8 8 8 8 8 8 9 9 10 10 4 8 12 10 10 10 8 7 6 6 6 7 8 10 11 12 11 11 11 11 12 13 13 13 12 12 13 13 12
6 7 7 8 7 7 7 7 8 7 7 7 7 7 8 8 8 9 8 8 6 6 6 6 7 7 8 8 8 7 7 7 7 7 8 8 8 9 9 8 4 8 11 10 10 9 8 7 6 6 7 8 9 10 11 12 11 11 11 12 12 13 13 13 13 13 13 13 12
7 7 7 7 7 7 7 8 8 8 8 7 7 7 8 8 9 9 8 7 6 6 6 6 7 7 7 7 7 7 7 7 6 6 6 7 7 8 8 8 4 8 11 10 9 8 7 6 6 7 8 8 9 9 11 12 12 12 12 13 13 13 12 12 12 12 12 12 12
6 6 6 6 6 7 8 8 8 8 7 7 7 8 8 8 8 8 7 6 6 6 6 7 7 7 7 6 6 6 6 7 6 5 5 5 6 7 8 9 4 7 11 9 9 8 7 6 6 7 8 8 8 9 10 10 10 11 12 12 12 12 12 11 11 11 11 11 11
5 5 5 6 7 8 8 8 8 7 7 7 8 8 8 8 8 7 6 5 6 6 6 7 7 7 7 6 6 6 6 7 5 4 4 4 5 6 7 9 6 5 10 8 8 7 7 6 6 7 8 8 9 9 9 9 8 9 10 11 11 11 11 10 10 10 10 10 10
5 5 5 6 7 7 8 7 7 7 7 8 8 8 8 8 7 6 6 5 5 6 7 7 7 7 6 6 5 6 6 7 5 4 3 4 5 5 6 9 8 4 6 7 7 7 6 5 5 6 7 8 9 9 8 8 8 9 9 9 9 10 10 9 8 9 9 10 11
5 5 6 6 7 7 7 8 7 7 7 8 7 7 7 7 6 5 5 5 6 6 7 7 7 7 6 5 5 5 6 7 5 4 3 4 4 4 4 7 8 4 2 8 8 7 5 4 5 6 7 8 8 8 8 7 8 8 9 8 9 9 9 9 8 8 8 10 11
5 5 6 6 7 7 7 8 8 7 7 7 7 7 7 6 6 5 5 5 6 6 7 7 7 7 6 5 5 5 6 6 6 5 4 5 3 1 2 5 7 5 1 8 8 6 4 4 4 6 7 7 8 7 7 7 7 8 8 8 8 8 8 8 8 8 8 9 10
4 5 6 6 6 7 7 8 8 7 6 6 7 6 6 6 5 5 6 6 6 6 6 6 7 7 6 5 5 5 5 5 6 6 6 6 4 2 3 4 6 6 2 7 7 6 4 3 4 5 7 7 7 7 7 6 7 7 8 8 8 8 8 8 8 7 7 8 8
Wind_Direction
110 115 121 127 141 145 133 109 94 47 4 13 2 359 355 346 345 341 334 328 327 324 321 317 310 307 308 313 312 308 304 301 305 306 303 297 297 302 306 306 305 306 308 312 314 314 313 313 311 308 304 302 299 297 295 294 295 295 296 297 298 299 299 299 298 299 298 298 296
124 133 140 149 164 159 131 113 114 96 37 27 -0 346 341 340 336 331 327 324 319 313 306 300 302 306 309 309 305 301 298 299 303 304 303 300 300 300 299 297 298 301 305 309 310 310 308 307 306 305 304 301 298 296 295 296 297 299 301 304 305 305 303 301 301 301 301 300 299
132 133 131 127 115 91 65 51 36 23 17 19 352 336 332 336 330 326 321 316 308 301 295 295 305 310 311 308 301 297 296 299 302 302 300 298 297 296 296 297 299 302 304 306 305 302 300 299 299 299 299 297 296 296 297 299 302 304 307 312 311 309 306 303 304 304 304 304 303
130 110 82 63 53 46 40 31 20 11 2 349 331 327 331 337 329 322 315 308 301 297 295 298 305 308 308 303 298 295 294 295 294 292 289 287 289 292 296 299 301 303 303 301 299 297 295 295 295 295 294 294 295 296 300 304 307 310 313 318 314 310 307 305 307 308 308 307 305
132 111 88 70 54 43 33 24 13 358 343 323 315 324 336 340 331 323 316 309 304 301 300 299 299 298 296 294 293 292 290 289 287 283 282 284 289 294 298 300 299 299 298 298 297 296 296 297 295 294 293 294 297 299 303 307 311 314 317 318 313 308 305 304 306 308 310 309 307
133 121 110 96 75 47 22 9 351 332 317 307 315 329 340 342 333 327 322 314 308 304 300 296 290 286 283 284 286 288 290 292 291 291 292 295 298 300 300 300 300 300 300 299 298 298 298 298 296 294 295 297 298 301 306 312 315 317 318 316 311 306 303 303 306 309 309 306 304
126 123 123 119 113 69 337 322 315 311 310 309 323 332 336 332 327 323 318 311 306 304 302 298 289 284 281 283 287 292 296 299 299 300 301 302 303 303 303 304 305 304 304 302 301 301 301 301 298 299 302 303 304 308 313 318 319 319 318 316 313 309 307 307 308 306 303 299 299
125 129 133 138 140 321 319 314 313 313 314 318 326 329 327 320 316 312 308 302 304 306 307 303 296 292 290 291 295 298 299 299 299 299 301 302 303 304 305 305 304 303 302 301 302 303 306 306 304 305 307 307 306 310 316 320 319 318 316 313 311 309 307 307 304 299 295 294 295
146 155 164 173 191 293 313 308 307 310 314 319 323 323 318 310 304 300 297 297 304 307 307 301 297 295 293 293 294 294 294 294 295 297 299 302 302 302 300 298 296 295 295 297 301 305 309 309 308 308 310 309 308 312 316 319 317 316 313 309 308 307 305 302 299 297 296 296 297
165 174 184 193 211 292 306 301 303 309 313 316 319 319 314 305 296 291 290 294 300 301 299 296 294 292 291 289 288 289 291 293 297 300 301 301 298 295 292 289 289 290 293 298 303 307 309 308 308 309 310 308 308 311 313 315 314 312 310 308 307 306 305 304 303 303 303 303 303
180 190 204 221 264 303 308 307 311 314 316 317 320 320 318 312 306 302 301 302 299 298 296 296 294 293 291 289 290 293 297 302 304 303 300 296 291 287 285 283 286 291 296 302 306 308 307 306 305 305 305 304 307 310 312 313 313 311 310 308 308 308 308 308 309 309 308 308 307
196 206 218 235 286 310 314 314 317 317 317 317 320 322 322 321 321 318 314 308 303 300 299 300 299 298 296 294 297 300 303 303 299 295 291 286 284 282 283 285 290 295 299 304 306 305 303 301 301 301 300 301 305 309 312 313 312 312 311 310 310 310 309 309 309 309 308 308 308
211 221 231 250 295 312 314 314 314 313 313 315 320 323 324 324 323 321 316 310 308 306 306 307 304 302 299 298 300 301 299 294 288 284 281 280 282 284 288 293 297 300 302 304 305 302 299 298 298 299 300 303 306 309 311 312 311 311 311 311 311 310 309 309 308 308 307 307 305
219 230 244 270 295 304 306 305 305 307 310 315 322 325 325 323 322 321 318 315 313 311 310 308 305 303 303 303 300 294 287 281 278 277 279 282 288 293 297 300 302 303 303 304 301 298 296 294 295 297 299 303 306 308 309 309 309 309 309 310 309 309 308 308 308 307 306 305 304
226 235 249 266 279 287 291 295 299 305 311 318 325 327 325 321 322 322 321 317 314 311 308 306 305 304 303 299 291 283 278 275 276 280 286 292 297 301 304 305 306 305 304 300 297 294 292 291 293 297 301 305 307 307 307 307 306 306 306 305 305 305 305 305 306 306 305 304 303
234 244 253 261 267 273 280 287 296 305 312 317 323 323 322 320 322 322 320 315 311 308 306 306 305 302 297 290 283 280 279 280 286 292 298 303 306 307 308 308 307 305 301 296 292 289 286 287 291 297 301 304 305 305 305 303 302 302 301 301 301 301 301 302 302 303 302 301 300
240 249 256 260 265 270 276 284 293 301 308 314 317 318 318 319 320 319 317 313 310 308 305 304 300 296 291 288 285 286 288 293 299 305 309 311 311 310 309 308 305 301 297 292 289 287 285 286 291 296 300 302 301 301 300 299 299 299 299 299 299 299 299 299 299 299 299 299 298
245 251 256 261 265 270 276 283 290 297 304 309 312 313 314 315 315 315 313 312 310 306 303 298 294 290 288 288 289 292 297 303 308 311 312 311 309 308 307 305 301 298 296 293 292 291 292 294 297 299 300 299 298 297 297 298 298 299 300 300 300 300 299 298 298 298 298 299 299
252 256 261 264 268 273 278 284 290 296 302 306 307 308 309 310 312 312 312 312 308 303 298 294 292 290 289 290 293 297 302 307 310 310 308 305 303 303 303 303 302 301 300 299 298 298 298 298 298 298 296 295 296 298 299 300 301 301 302 303 303 302 301 300 300 300 300 301 301
258 264 268 272 276 279 282 287 291 296 299 301 302 303 305 308 311 312 311 308 303 297 292 290 290 291 292 294 297 300 305 309 309 306 302 299 299 300 301 301 302 302 302 301 299 297 296 294 293 292 292 295 299 302 304 303 303 304 304 305 305 304 303 303 303 302 302 302 302
258 265 271 276 279 282 284 288 291 293 294 294 296 299 304 309 310 309 305 299 294 291 289 289 291 293 296 298 301 305 308 310 307 302 298 296 296 296 297 298 299 299 298 297 294 291 289 288 287 288 292 298 303 305 305 304 304 305 306 306 305 305 305 305 305 305 305 304 304
257 264 271 276 279 282 285 287 288 288 289 290 294 299 305 309 306 302 296 291 290 290 292 293 293 295 297 298 302 307 310 309 303 298 294 293 293 293 293 294 294 294 294 293 292 291 289 286 286 289 294 301 304 305 305 306 307 307 307 306 306 306 307 307 307 307 306 306 305
257 263 269 275 278 281 283 283 284 285 286 290 295 301 305 304 299 295 293 292 293 294 294 293 292 292 294 297 303 307 307 302 296 292 291 291 292 292 292 291 292 294 295 296 298 298 295 292 290 293 298 303 305 306 308 310 309 308 307 307 307 307 308 308 307 307 306 306 304
257 261 267 273 277 279 280 281 283 285 289 294 299 301 300 297 295 295 296 297 296 295 293 291 289 290 293 299 303 302 299 294 292 292 292 293 293 293 293 293 294 296 298 303 320 326 322 309 303 303 304 306 308 310 311 311 309 307 306 307 307 307 307 307 307 306 305 304 302
255 259 263 268 272 275 277 279 283 288 293 298 298 297 295 294 297 299 300 299 296 293 290 288 289 293 298 301 298 294 291 289 290 292 294 295 295 295 295 295 296 297 302 332 36 43 34 21 354 332 321 316 315 313 311 308 306 305 305 306 306 306 306 306 305 304 303 302 301
254 256 260 264 268 272 275 279 285 291 294 296 295 295 296 298 300 300 300 297 295 293 292 291 295 300 303 298 292 289 288 288 291 294 296 298 299 301 302 302 300 302 325 51 76 72 61 52 37 11 343 328 321 316 310 306 305 305 304 305 305 305 305 305 304 303 302 301 302
253 255 259 264 268 273 278 284 288 291 293 294 296 299 301 303 301 299 298 296 296 294 293 292 296 298 295 289 288 289 292 294 296 298 300 303 306 308 308 307 306 325 46 85 86 79 70 62 51 30 358 335 324 317 311 307 306 305 304 305 305 305 304 303 303 302 303 303 304
253 256 261 265 271 276 281 286 287 290 292 297 301 304 305 303 299 297 296 295 294 292 290 291 295 295 291 288 292 295 298 299 300 303 305 308 311 312 313 311 314 9 79 94 87 78 69 61 50 32 4 336 323 315 310 307 306 305 305 305 305 304 304 303 303 304 304 305 306
254 257 261 266 272 277 281 284 286 291 296 302 304 305 303 299 296 295 293 292 291 291 293 298 301 300 297 298 299 300 300 301 304 308 313 316 318 318 317 314 314 21 87 96 86 75 65 54 41 28 6 336 321 314 311 308 307 306 306 305 304 304 304 304 304 305 306 307 309
255 257 260 266 271 275 278 282 288 294 299 303 303 301 299 296 294 293 292 292 293 296 300 305 304 302 301 301 302 303 304 308 313 318 322 324 323 321 317 311 315 25 85 91 80 69 60 48 36 26 6 334 317 311 309 308 307 306 304 303 303 303 303 303 304 305 306 309 312
256 258 262 267 271 275 280 286 292 297 300 300 299 297 296 295 295 295 294 295 296 298 299 299 299 299 300 301 303 306 310 315 321 326 328 327 323 320 315 306 329 51 83 82 73 65 57 46 34 23 2 330 314 308 306 305 304 302 301 301 302 303 303 303 305 307 310 313 316
256 259 264 269 273 279 285 291 295 297 296 293 292 292 292 293 294 294 294 294 294 294 295 297 299 300 300 302 305 309 314 321 327 330 330 326 321 319 314 305 356 73 87 79 72 66 59 48 34 17 353 326 309 303 302 300 299 299 299 300 301 303 305 306 308 311 314 318 320
256 261 266 271 277 283 289 295 294 292 289 286 286 288 290 292 292 291 290 289 291 294 298 302 302 301 302 305 309 314 320 326 329 329 327 324 322 320 315 308 17 82 92 83 78 71 63 51 34 11 346 323 306 300 298 298 299 300 301 303 305 306 308 311 314 317 320 322 324
256 261 266 271 278 286 291 292 289 286 283 282 283 286 288 289 288 287 287 288 293 297 300 300 299 299 301 305 311 317 324 329 328 327 327 326 325 320 317 318 34 87 95 88 82 75 65 51 31 6 342 320 305 300 300 302 303 304 305 307 308 311 314 317 320 322 324 326 326
252 257 264 272 280 286 288 288 286 284 283 284 286 287 286 285 285 286 287 292 296 297 295 293 294 295 298 303 311 319 324 325 325 326 328 328 324 320 318 326 44 91 98 90 85 78 66 50 27 1 339 318 306 303 305 307 307 308 309 309 310 313 317 322 324 326 327 328 328
251 257 264 272 278 281 283 284 285 286 287 287 287 285 285 284 285 287 290 295 295 292 290 291 293 295 298 304 314 320 322 321 323 326 327 324 319 319 320 322 9 89 98 93 88 80 66 48 25 359 336 318 311 309 311 311 310 309 310 310 312 316 322 327 328 328 327 328 327
255 258 262 267 271 275 278 281 283 284 285 284 283 283 284 286 287 289 293 297 294 292 291 293 295 297 302 310 319 322 321 317 318 320 319 313 313 319 322 317 337 64 96 97 90 80 66 46 24 357 336 320 316 315 314 312 310 309 310 312 315 320 325 328 327 326 325 325 324
256 257 259 261 266 271 275 278 279 279 280 280 281 282 284 286 288 292 297 299 296 295 294 295 296 299 306 317 321 319 314 307 308 308 307 302 312 323 327 319 328 14 93 104 93 82 67 47 22 357 337 322 319 317 314 311 310 310 313 316 319 324 326 326 324 323 322 322 320
262 265 267 269 272 275 277 277 276 275 276 278 280 283 286 288 292 297 301 298 295 293 293 294 296 301 308 318 314 307 301 298 301 304 304 300 319 334 333 316 315 323 90 110 100 89 73 50 21 356 338 323 320 317 313 310 310 313 316 320 322 323 324 323 321 319 318 319 317
272 275 276 276 277 277 277 276 276 276 277 279 283 285 288 292 295 296 295 290 287 288 289 292 296 301 306 309 299 293 291 295 304 312 313 307 324 337 310 296 298 301 13 109 107 100 83 53 20 356 341 327 322 317 312 310 313 317 321 324 323 322 321 319 318 316 316 316 316
275 274 273 272 272 273 274 276 277 279 280 282 284 287 290 292 289 286 283 281 284 287 291 293 296 299 300 296 287 286 290 300 310 316 315 307 303 272 248 272 285 295 323 106 114 111 94 58 19 357 344 332 323 316 312 312 316 321 323 324 323 320 318 316 315 314 315 316 316